Content
SEND FEEDBACK

Daily
Averages
Monthly
Summary
Turkmenistan

ASHGABAT, TURKMENISTAN


Home > Asia > Turkmenistan
Elevation: 236 meters     Latitude: 37 58N     Longitude: 058 20E

WEATHER
 
SELECT A DAY
Number of Records: 180,375;   Date Range: 3/15/97 - 9/29/14
 
SHARE

PRINT THIS DATA

[ ← Previous Day ]
WEATHER ALMANAC - 9 MAY, 2013
[ Next Day → ]
[ °F ]   °C
Weather ElementAverageHighLow
Temperature24.6 °C29 °C (3:00 pm)18 °C (6:00 am)
Dewpoint5.3 °C10.6 °C (2:00 am)1 °C (11:00 am)
Humidity27.6 %45 % (6:00 am)19 % (2:00 pm)
Barometer1017.9 hPa1020.3 hPa (8:00 am)1015.2 hPa (5:30 pm)
Wind Speed15.1 km/h25.3 km/h (3:00 am)
Weather ElementAverage
Visibility10 km
Wind DirectionS (180.9 °)

Weather ElementTotal
Precipitation---
Cooling Degree Days5.2 (Base 18.3)
Growing Degree Days13.5 (Base 10)
Averaged from 34 records on 9 May, 2013
WEATHER CONDITIONS BREAKOUT
WIND DIRECTION BREAKOUT
WEATHER BY HOUR - 9 MAY, 2013
[ °F ]   °C
Local TimeTemperatureDewpointHumidityBarometerVisibilityWind DirectionWind SpeedGust SpeedPrecipitationEventsConditions
1:00 AM23 °C6 °C33 %1017.3 hPa10 kmWest (260°)14.3 km/hClear
2:00 AM22.2 °C10.6 °C36 %1017.6 hPa9.7 kmWNW (290°)18 km/h
2:00 AM22 °C6 °C35 %1017.9 hPa10 kmWNW (290°)18 km/hClear
3:00 AM21 °C6 °C38 %1017.9 hPa10 kmWNW (290°)25.3 km/hClear
4:00 AM20 °C6 °C40 %1017.9 hPa10 kmWNW (290°)21.6 km/hClear
5:00 AM19 °C6 °C43 %1019 hPa10 kmWest (280°)18 km/hClear
5:00 AM19.4 °C8.9 °C39 %1018.6 hPa9.7 kmWest (280°)18 km/h
6:00 AM18 °C6 °C45 %1019 hPa10 kmWest (270°)14.3 km/hScattered Clouds
7:00 AM19 °C5 °C40 %1019 hPa10 kmWNW (300°)10.8 km/hMostly Cloudy
8:00 AM20 °C4 °C35 %1020 hPa10 kmWNW (300°)18 km/hOvercast
8:00 AM20 °C8.3 °C35 %1020.3 hPa9.7 kmNW (310°)18 km/hOvercast
9:00 AM22 °C4 °C31 %1020 hPa10 kmWNW (300°)18 km/hMostly Cloudy
10:00 AM23 °C3 °C27 %1020 hPa10 kmNW (310°)14.3 km/hMostly Cloudy
11:00 AM23.3 °C7.2 °C24 %1020.3 hPa9.7 kmWNW (290°)7.2 km/hOvercast
11:00 AM25 °C1 °C21 %1020 hPa10 kmNW (310°)7.2 km/hMostly Cloudy
12:00 PM26 °C1 °C20 %1020 hPa10 kmENE (60°)7.2 km/hOvercast
1:00 PM27 °C2 °C20 %1019 hPa10 kmEast (80°)10.8 km/hOvercast
2:00 PM28 °C2 °C19 %1017.9 hPa10 kmSE (130°)21.6 km/hOvercast
2:00 PM27.2 °C9.4 °C22 %1017.9 hPa9.7 kmSE (130°)21.6 km/hOvercast
3:00 PM29 °C4 °C20 %1017.3 hPa10 kmEast (80°)18 km/hOvercast
3:30 PM29 °C4 °C20 %1017.3 hPa10 kmESE (120°)21.6 km/hOvercast
4:00 PM29 °C4 °C20 %1016.3 hPa10 kmESE (110°)18 km/hOvercast
4:30 PM29 °C4 °C20 %1016.3 hPa10 kmESE (120°)18 km/hOvercast
5:00 PM28.3 °C10.6 °C22 %1015.6 hPa9.7 kmEast (90°)18 km/hOvercast
5:00 PM29 °C4 °C20 %1016.3 hPa10 kmEast (100°)14.3 km/hOvercast
5:30 PM29 °C4 °C20 %1015.2 hPa10 kmESE (120°)14.3 km/hOvercast
6:00 PM28 °C4 °C21 %1015.2 hPa10 kmESE (110°)18 km/hOvercast
7:00 PM28 °C5 °C23 %1015.2 hPa10 kmEast (100°)10.8 km/hOvercast
8:00 PM27.2 °C9.4 °C22 %1015.9 hPa9.7 kmEast (90°)10.8 km/hOvercast
8:00 PM27 °C6 °C26 %1016.3 hPa10 kmEast (90°)10.8 km/hOvercast
9:00 PM26 °C2 °C21 %1016.3 hPa10 kmENE (70°)14.3 km/hOvercast
10:00 PM24 °C3 °C25 %1017.3 hPa10 kmVariable3.5 km/hOvercast
11:00 PM23.3 °C9.4 °C30 %1017.3 hPa9.7 kmEast (90°)10.8 km/hPartly Cloudy
11:00 PM23 °C3 °C27 %1017.3 hPa10 kmEast (90°)10.8 km/hMostly Cloudy
Hourly data recorded from UTAA, located 0 kilometers away from Ashgabat, Turkmenistan







STORIES FROM OUR PARTNERS